User: anonymous   Login
Location: Colonia Mina de C?rbuni
(46.1667°N, 22.7167°E)
Time: 13:45:42
(UTC+00:00)
Language:

CSL-04 Rocket - Orbit

View from above orbital plane
View from above orbital plane
View from above satellite
View from above satellite

Ground track
Ground track

The orbit data is extracted from the following two-line orbital elements,

1 25732U 99025C   23161.09976281  .00000099  00000-0  69597-4 0  9997
2 25732  98.8035 205.4173 0036990 346.4280  33.9394 14.17825820246078
Epoch (UTC): 10 June 2023 02:23:39
Eccentricity: 0.0036990
inclination: 98.8035°
perigee height: 806 km
apogee height: 859 km
right ascension of ascending node: 205.4173°
argument of perigee: 346.4280°
revolutions per day: 14.17825820
mean anomaly at epoch: 33.9394°
orbit number at epoch: 24607

The dashed part of the orbit path shows where the satellite is in the earth's shadow,  

DLR